sat.trackr.live / text

‹ back to catalog

STARLINK-11449 [DTC]

NORAD 63012 · 2025-032H

PAYLOAD ACTIVE UNKNOWN

§ Identity

Operator
Country
US
Launch date
2025-02-15
Launch site
AFETR
Launch vehicle
Mass (kg)
RCS (m²)

Purposes: comms

External: N2YO · Heavens-Above · Gunter

§ Orbital elements

Epoch: 2026-09-21T21:38:41.479008Z

Period
91.66 min
Inclination
43.0000°
Eccentricity
0.0002935
Mean motion
15.70963263 rev/d
Perigee alt
354.2 km
Apogee alt
358.1 km
Semi-major
6,734.3 km
B*
1.2197e-3
RAAN
92.5720°
Arg perigee
264.3557°
Mean anomaly
95.6976°
Rev number
9,307

§ Raw data

STARLINK-11449 [DTC]1 63012U 25032H   26264.90186897  .00159951  00000+0  12197-2 0  99932 63012  43.0000  92.5720 0002935 264.3557  95.6976 15.70963263 93070

JSON: /api/v1/satellites/63012 · /tle

For live sub-satellite position, see the globe view (requires WebGL).

§ Visibility from observer

Set your observer location to see the next 7 days of passes ≥ 10°. The values pass through the URL so the page stays shareable.

No JS? Fill the form by hand. The geolocation button needs JavaScript.